DW5444 Weather Reports


time (UTC)temp
F
wind
direction
speed
knots
gust
knots
rain 1hr
in
rain 24hr
in
rain mn
in
humidity
%
barometer
mb
20260902204502 69 132 4.3 9.6 0.00 0.00 0.00 35 1005.1
20260902203002 71 234 6.1 15.6 0.00 0.00 0.00 35 1005.1
20260902201600 72 167 7.0 16.5 0.00 0.00 0.00 34 1005.2
20260902200112 70 229 7.8 13.9 0.00 0.00 0.00 38 1005.2
20260902194559 69 208 5.2 13.9 0.00 0.00 0.00 39 1005.6
20260902193053 69 145 5.2 13.9 0.00 0.00 0.00 38 1005.7
20260902191551 69 226 8.7 13.9 0.00 0.00 0.00 39 1005.7
20260902190049 69 178 7.0 11.3 0.00 0.00 0.00 40 1005.8
20260902184557 68 234 4.3 13.0 0.00 0.00 0.00 41 1005.8
20260902183046 69 204 6.1 12.2 0.00 0.00 0.00 40 1006.0
20260902181545 68 204 7.0 12.2 0.00 0.00 0.00 42 1006.1
20260902180101 65 294 2.6 8.7 0.00 0.00 0.00 49 1006.1
20260902174540 65 263 5.2 8.7 0.00 0.00 0.00 48 1006.0
20260902173038 66 233 4.3 7.8 0.00 0.00 0.00 48 1006.2
20260902171534 64 230 1.7 7.0 0.00 0.00 0.00 51 1006.4
20260902170033 63 278 4.3 7.0 0.00 0.00 0.00 53 1006.7
20260902164532 63 278 1.7 7.0 0.00 0.00 0.00 54 1006.7
20260902163028 62 309 2.6 4.3 0.00 0.00 0.00 55 1006.7
20260902161528 61 272 0.9 3.5 0.00 0.00 0.00 59 1006.9
20260902160021 60 282 2.6 5.2 0.00 0.00 0.00 60 1007.1
20260902154527 59 278 1.7 4.3 0.00 0.00 0.00 63 1007.3
20260902153016 58 261 2.6 5.2 0.00 0.00 0.00 65 1007.3
20260902151512 57 230 4.3 7.0 0.00 0.00 0.00 67 1007.3
20260902150012 57 211 3.5 5.2 0.00 0.00 0.00 68 1007.2
20260902144524 55 123 1.7 3.5 0.00 0.00 0.00 71 1007.4
20260902143004 51 119 1.7 4.3 0.00 0.00 0.00 79 1007.4
20260902141505 0 0.0 0.0 0.00 0.00 0.00 1007.5
20260902140057 0 0.0 0.0 0.00 0.00 0.00 1007.4
20260902134553 0 0.0 0.0 0.00 0.00 0.00 1007.4
20260902133049 0 0.0 0.0 0.00 0.00 0.00 1007.6
20260902131544 0 0.0 0.0 0.00 0.00 0.00 1007.4
20260902130039 0 0.0 0.0 0.00 0.00 0.00 1007.4
20260902124536 0 0.0 0.0 0.00 0.00 0.00 1007.4
20260902123033 0 0.0 0.0 0.00 0.00 0.00 1007.4
20260902121527 0 0.0 0.0 0.00 0.00 0.00 1007.6
20260902120022 51 225 3.5 6.1 0.00 0.00 0.00 74 1007.8
20260902114529 52 189 2.6 6.1 0.00 0.00 0.00 74 1007.9
20260902113033 52 166 2.6 6.1 0.00 0.00 0.00 74 1007.9
20260902111523 52 124 4.3 9.6 0.00 0.00 0.00 74 1007.9
20260902110019 52 126 4.3 7.8 0.00 0.00 0.00 74 1007.9
20260902104518 51 123 4.3 7.0 0.00 0.00 0.00 76 1007.8
20260902103026 51 126 3.5 7.0 0.00 0.00 0.00 77 1007.8
20260902101519 50 150 3.5 6.1 0.00 0.00 0.00 79 1007.7
20260902100017 50 146 1.7 3.5 0.00 0.00 0.00 80 1007.5
20260902094515 50 140 1.7 2.6 0.00 0.00 0.00 81 1007.2
20260902093009 50 156 1.7 2.6 0.00 0.00 0.00 81 1007.4
20260902091509 50 184 1.7 4.3 0.00 0.00 0.00 81 1007.6
20260902090006 51 135 2.6 5.2 0.00 0.00 0.00 80 1007.8
20260902084502 51 159 1.7 4.3 0.00 0.00 0.00 80 1007.8
20260902083101 52 199 1.7 6.1 0.00 0.00 0.00 79 1007.7
20260902081605 52 218 2.6 5.2 0.00 0.00 0.00 79 1007.7
20260902080056 53 206 3.5 7.0 0.00 0.00 0.00 78 1007.9
20260902074554 53 218 3.5 8.7 0.00 0.00 0.00 78 1008.0
20260902073056 53 229 4.3 8.7 0.00 0.00 0.00 77 1007.8
20260902071550 53 248 5.2 9.6 0.00 0.00 0.00 76 1007.8
20260902070046 54 222 7.0 10.4 0.00 0.00 0.00 75 1007.7
20260902064550 54 244 6.1 10.4 0.00 0.00 0.00 75 1007.7
20260902063051 54 192 7.0 11.3 0.00 0.00 0.00 74 1007.6
20260902061556 54 229 5.2 8.7 0.00 0.00 0.00 74 1007.6
20260902060041 55 229 7.0 11.3 0.00 0.00 0.00 72 1007.5
20260902054547 55 211 7.0 10.4 0.00 0.00 0.00 72 1007.5
20260902053044 55 237 5.2 12.2 0.00 0.00 0.00 71 1007.4
20260902051538 56 230 7.0 9.6 0.00 0.00 0.00 70 1007.4
20260902050035 56 234 7.0 9.6 0.00 0.00 0.00 69 1007.5
20260902044532 56 246 7.0 9.6 0.00 0.00 0.00 68 1007.3
20260902043030 57 236 6.1 10.4 0.00 0.00 0.00 66 1007.0
20260902041529 57 251 10.4 14.8 0.00 0.00 0.00 65 1006.8
20260902040032 58 268 11.3 15.6 0.00 0.00 0.00 64 1006.6
20260902034527 59 261 13.9 20.9 0.00 0.00 0.00 62 1006.4
20260902033024 59 244 10.4 17.4 0.00 0.00 0.00 60 1006.1
20260902031523 59 249 10.4 13.9 0.00 0.00 0.00 59 1005.9
20260902030021 60 254 7.0 13.9 0.00 0.00 0.00 57 1005.7
20260902024521 61 256 6.1 9.6 0.00 0.00 0.00 55 1005.6
20260902023020 62 260 6.1 10.4 0.00 0.00 0.00 54 1005.5
20260902021520 63 247 7.0 11.3 0.00 0.00 0.00 52 1005.2
20260902020021 64 247 6.1 9.6 0.00 0.00 0.00 51 1004.9
20260902014531 65 257 5.2 9.6 0.00 0.00 0.00 50 1004.9
20260902013018 66 257 6.1 8.7 0.00 0.00 0.00 49 1004.5
20260902011534 67 282 7.0 13.9 0.00 0.00 0.00 48 1004.5
20260902010015 69 267 8.7 14.8 0.00 0.00 0.00 44 1004.2
20260902004514 71 275 8.7 13.9 0.00 0.00 0.00 39 1004.1
20260902003014 72 274 8.7 13.0 0.00 0.00 0.00 33 1004.1
20260902001515 73 296 8.7 14.8 0.00 0.00 0.00 35 1004.1
20260902000013 74 282 7.8 13.0 0.00 0.00 0.00 33 1004.1
20260901234512 75 270 7.0 13.0 0.00 0.00 0.00 33 1003.9
20260901233011 76 279 7.0 15.6 0.00 0.00 0.00 31 1004.0
20260901231511 77 261 7.0 13.0 0.00 0.00 0.00 31 1003.9
20260901230009 76 263 7.0 14.8 0.00 0.00 0.00 32 1004.0
20260901224512 76 279 9.6 14.8 0.00 0.00 0.00 33 1004.0
20260901223011 76 292 5.2 13.9 0.00 0.00 0.00 33 1004.0
20260901221505 76 301 7.0 13.9 0.00 0.00 0.00 35 1004.2
20260901220004 76 292 5.2 13.9 0.00 0.00 0.00 35 1004.3
20260901214508 76 264 6.1 13.0 0.00 0.00 0.00 35 1004.4
20260901213000 75 237 7.8 14.8 0.00 0.00 0.00 36 1004.6
20260901211559 75 281 7.0 13.9 0.00 0.00 0.00 36 1004.7
20260901210114 75 277 6.1 13.9 0.00 0.00 0.00 36 1004.9